#timestamp,LO_Frequency,Hit,StdDev 
1575892815.9,286047015.1,N
1575892835.7,286047017.9,N
1575892855.6,286047018.3,N
1575892875.4,286047019.6,N
1575892895.2,286047024.7,N
1575892915.1,286047034.1,Y
1575892916.0,286047034.1,P
1575892935.8,286047030.6,N
1575892955.7,286047026.1,N
1575892975.5,286047027.9,N
1575892995.3,286047025.1,N
1575893015.2,286047028.5,N
1575893035.0,286047036.3,Y
1575893035.9,286047036.3,P
1575893055.8,286047015.8,N
1575893075.6,286047020.1,N
1575893095.4,286047021.4,N
1575893115.3,286047020.0,N
1575893135.1,286047011.1,N
1575893155.9,286047007.6,N
1575893175.7,286046995.6,N
1575893225.6,286046980.5,E
1575893235.5,286046987.5,N
1575893255.3,286046997.2,P
1575893275.2,286046994.6,N
1575893295.9,286046992.2,N
1575893315.7,286046994.7,N
1575893335.6,286046996.2,N
1575893355.4,286046992.3,N
1575893375.2,286046991.6,N
1575893395.1,286046996.3,N
1575893396.0,286046996.3,N
1575893415.8,286046999.1,N
1575893435.7,286047000.7,N
1575893455.5,286047003.1,N
1575893475.3,286046999.8,N
1575893495.2,286047001.6,N
1575893515.0,286047004.5,N
1575893515.9,286047004.5,N
1575893535.8,286047006.6,N
1575893555.6,286047009.9,N
1575893575.4,286047007.9,N
1575893595.3,286047006.3,N
1575893615.1,286047005.7,N
1575893635.8,286046998.6,N
1575893655.7,286046992.8,N
1575893675.5,286046984.5,N
1575893695.4,286046977.7,Y
1575893715.2,286046977.4,P
1575893735.0,286046973.9,N
1575893735.9,286046973.9,N
1575893755.8,286046973.1,N
1575893775.6,286046971.8,N
1575893795.5,286046967.7,Y
1575893815.3,286046988.8,P
1575893835.1,286046986.1,N
1575893855.9,286046986.0,P
1575893875.7,286046992.3,N
1575893895.5,286046990.4,N
1575893915.4,286046989.4,N
1575893935.2,286046988.7,N
1575893955.1,286046992.7,N
1575893956.0,286046992.7,N
1575893975.8,286046996.2,N
1575893995.6,286046989.7,N
1575894015.5,286046989.3,N
1575894035.3,286046999.0,N
1575894055.1,286046999.3,N
1575894075.9,286047000.0,N
1575894095.7,286047003.9,N
1575894115.6,286047002.9,N
1575894135.4,286047009.9,N
1575894155.2,286047011.3,N
1575894175.1,286047013.3,N
1575894176.0,286047013.3,N
1575894195.8,286047012.5,N
1575894215.7,286047015.0,N
1575894235.5,286047009.4,N
1575894255.3,286047011.8,N
1575894275.2,286047014.1,N
1575894295.0,286047020.2,N
1575894295.9,286047020.2,N
1575894315.7,286047016.3,N
1575894335.6,286047015.0,N
1575894355.4,286047018.0,N
1575894375.3,286047016.0,N
1575894395.1,286047014.1,N
1575894396.0,286047014.1,N
1575894415.8,286047011.3,N
1575894435.7,286047008.8,N
1575894455.5,286047009.7,N
1575894475.4,286047008.0,N
1575894495.2,286047018.3,N
1575894515.0,286047013.8,N
1575894515.9,286047013.8,N
1575894535.8,286047013.5,N
1575894555.6,286047004.2,N
1575894575.4,286047000.6,N
1575894595.3,286046995.5,N
1575894615.1,286046995.6,N
1575894635.9,286046998.4,N
1575894655.7,286046995.8,N
1575894675.5,286046991.2,N
1575894695.4,286046991.3,N
1575894715.2,286046987.6,N
1575894735.0,286046982.2,N
1575894736.0,286046982.2,N
1575894755.8,286046990.0,N
1575894775.6,286046986.3,N
1575894795.5,286046994.4,N
1575894815.3,286046998.1,N
1575894835.1,286047001.5,N
1575894855.9,286046999.0,N
1575894875.7,286046997.0,N
1575894895.6,286046993.0,N
1575894915.4,286046991.4,N
1575894935.2,286046987.6,N
1575894955.1,286046988.5,N
1575894956.0,286046988.5,N
1575894975.8,286046989.1,N
1575894995.7,286046993.5,N
1575895015.5,286046998.8,N
1575895035.3,286046994.9,N
1575895055.2,286046994.9,N
1575895075.0,286046995.2,N
1575895075.9,286046995.2,N
1575895095.8,286046997.6,N
1575895115.6,286046994.6,N
1575895135.4,286046991.7,N
1575895155.3,286046990.8,N
1575895175.1,286046992.7,N
1575895195.8,286046991.2,N
1575895215.7,286046991.2,N
1575895235.5,286046990.6,N
1575895255.4,286046996.1,N
1575895275.2,286047000.7,N
1575895295.0,286046996.7,N
1575895295.9,286046996.7,N
1575895315.8,286046996.8,N
1575895335.6,286046997.3,N
1575895355.5,286046995.5,N
1575895375.3,286046997.8,N
1575895395.1,286046997.8,N
1575895415.9,286046999.5,N
1575895435.7,286047004.4,N
1575895455.5,286047006.8,N
1575895475.4,286047015.6,Y
1575895495.2,286047017.8,P
1575895515.1,286047019.9,N
1575895516.0,286047019.9,N
1575895535.8,286047022.8,N
1575895555.6,286047018.9,N
1575895575.5,286047019.3,N
1575895595.3,286047018.5,N
1575895615.1,286047020.1,N
1575895635.9,286047012.7,N
1575895655.7,286047009.1,N
1575895675.6,286047004.2,N
1575895695.4,286047003.7,N
1575895715.2,286047007.2,N
1575895735.1,286047005.7,N
1575895736.0,286047005.7,N
1575895755.8,286047002.5,N
1575895775.7,286047002.7,N
1575895795.5,286047001.1,N
1575895815.3,286046995.3,N
1575895835.2,286046997.6,N
1575895855.0,286046994.3,N
1575895855.9,286046994.3,N
1575895875.7,286046992.6,N
1575895895.6,286046989.7,N
1575895915.4,286046991.5,N
1575895935.3,286046988.8,N
1575895955.1,286046982.6,N
1575895956.0,286046982.6,N
1575895975.8,286046976.0,N
1575895995.7,286046974.2,N
1575896015.5,286046971.5,N
1575896035.3,286046972.8,N
1575896055.2,286046975.1,N
1575896075.0,286046973.7,N
1575896075.9,286046973.7,N
1575896095.8,286046974.1,N
1575896115.6,286046975.0,N
1575896135.4,286046975.7,N
1575896155.3,286046973.3,N
1575896175.1,286046971.9,N
1575896195.9,286046972.8,N
1575896215.7,286046970.9,N
1575896235.5,286046977.1,N
1575896255.4,286046984.7,N
1575896275.2,286046984.4,N
1575896295.1,286046984.7,N
1575896296.0,286046984.7,N
1575896315.8,286046981.4,N
1575896335.6,286046980.9,N
1575896355.5,286046981.7,N
1575896375.3,286046978.8,N
1575896395.2,286046975.6,Y
